period_start,C,m1,H,J0,J1,J2,J3,J4,J5,JA,JB,JC,JD,JJ,JK,JN,#
2016-09-28 00:01:28,-0.00,0.82,0.00,24.47,28.45,31.62,14.32,47.22,1012.22,2030.89,3184.00,2906.99,3285.87,600.19,590.78,33.58,0000 0000 0000 0000 000000
2016-09-28 00:06:29,0.02,0.82,0.00,24.50,28.45,31.61,14.38,47.22,1012.22,2030.87,3183.87,2906.85,3285.11,599.79,590.20,33.63,0000 0000 0000 0000 000000
2016-09-28 00:11:30,0.02,0.82,0.00,24.47,28.45,31.62,14.39,47.32,1012.22,2030.88,3183.21,2906.32,3285.01,600.08,590.62,33.68,0000 0000 0000 0000 000000
2016-09-28 00:16:31,0.00,0.82,0.00,24.48,28.45,31.62,14.33,47.23,1012.22,2030.87,3182.95,2906.05,3284.89,600.02,590.54,33.73,0000 0000 0000 0000 000000
2016-09-28 00:21:33,0.01,0.82,0.00,24.46,28.45,31.61,14.35,47.24,1012.23,2030.68,3182.12,2905.92,3284.12,599.95,590.48,33.78,0000 0000 0000 0000 000000
2016-09-28 00:26:34,0.10,0.83,0.00,24.46,28.45,31.61,14.39,47.27,1012.27,2030.83,3180.61,2904.91,3283.20,599.89,590.53,33.83,0000 0000 0000 0000 000000
2016-09-28 00:31:35,0.04,0.83,0.00,24.45,28.45,31.63,14.41,47.27,1012.34,2030.85,3179.67,2904.17,3282.39,600.04,590.78,33.88,0000 0000 0000 0000 000000
2016-09-28 00:36:37,0.06,0.83,0.00,24.44,28.45,31.60,14.38,47.28,1012.35,2030.91,3178.41,2903.51,3281.45,599.80,590.44,33.93,0000 0000 0000 0000 000000
2016-09-28 00:41:38,0.06,0.84,0.00,24.45,28.45,31.62,14.42,47.28,1012.46,2030.70,3176.59,2902.29,3280.05,599.88,590.67,33.98,0000 0000 0000 0000 000000
2016-09-28 00:46:39,0.09,0.84,0.00,24.45,28.45,31.60,14.35,47.31,1012.57,2030.66,3174.65,2901.11,3278.69,599.88,590.58,34.03,0000 0000 0000 0000 000000
2016-09-28 00:51:40,0.07,0.84,0.00,24.43,28.45,31.63,14.40,47.33,1012.52,2030.81,3173.38,2900.21,3277.61,600.01,590.79,34.08,0000 0000 0000 0000 000000
2016-09-28 00:56:41,0.05,0.85,0.00,24.44,28.45,31.64,14.42,47.36,1012.52,2030.75,3172.28,2899.23,3276.44,600.04,590.83,34.13,0000 0000 0000 0000 000000
2016-09-28 01:01:43,0.04,0.85,0.00,24.44,28.45,31.62,14.33,47.38,1012.61,2030.64,3171.23,2898.26,3275.32,599.90,590.74,34.18,0000 0000 0000 0000 000000
2016-09-28 01:06:44,0.04,0.85,0.00,24.43,28.45,31.61,14.36,47.27,1012.58,2030.43,3170.23,2897.54,3274.40,599.90,590.71,34.23,0000 0000 0000 0000 000000
2016-09-28 01:11:45,0.05,0.85,0.00,24.42,28.45,31.63,14.43,47.31,1012.71,2030.45,3169.30,2896.98,3273.72,600.11,590.94,34.29,0000 0000 0000 0000 000000
2016-09-28 01:16:46,0.04,0.86,0.00,24.40,28.45,31.62,14.40,47.32,1012.70,2030.49,3168.48,2896.23,3272.96,599.85,590.65,34.34,0000 0000 0000 0000 000000
2016-09-28 01:21:48,0.08,0.86,0.00,24.41,28.45,31.60,14.34,47.43,1012.71,2030.44,3166.83,2895.36,3271.76,600.08,590.97,34.39,0000 0000 0000 0000 000000
2016-09-28 01:26:49,0.02,0.86,0.00,24.41,28.46,31.62,14.42,47.47,1012.71,2030.27,3165.68,2894.51,3270.95,600.01,590.90,34.44,0000 0000 0000 0000 000000
2016-09-28 01:31:50,0.03,0.86,0.00,24.41,28.47,31.64,14.37,47.37,1012.71,2030.23,3164.87,2894.01,3270.11,600.09,590.92,34.49,0000 0000 0000 0000 000000
2016-09-28 01:36:51,0.03,0.87,0.00,24.41,28.47,31.62,14.42,47.45,1012.71,2030.17,3164.07,2893.61,3269.72,600.23,591.14,34.54,0000 0000 0000 0000 000000
2016-09-28 01:41:52,0.06,0.87,0.00,24.39,28.47,31.63,14.44,47.45,1012.72,2030.13,3163.12,2892.80,3268.71,600.19,591.12,34.59,0000 0000 0000 0000 000000
2016-09-28 01:46:54,0.04,0.87,0.00,24.38,28.47,31.63,14.40,47.38,1012.73,2030.05,3161.74,2892.02,3267.80,600.22,591.21,34.64,0000 0000 0000 0000 000000
2016-09-28 01:51:55,0.02,0.87,0.00,24.38,28.47,31.64,14.35,47.55,1012.72,2030.07,3161.05,2891.87,3267.10,599.75,590.96,34.69,0000 0000 0000 0000 000000
2016-09-28 01:56:56,0.03,0.87,0.00,24.35,28.47,31.64,14.44,47.41,1012.82,2030.06,3160.56,2891.17,3266.95,600.24,591.32,34.74,0000 0000 0000 0000 000000
2016-09-28 02:01:58,0.01,0.88,0.00,24.37,28.47,31.63,14.46,47.48,1012.90,2030.03,3159.96,2891.00,3266.25,600.00,591.00,34.79,0000 0000 0000 0000 000000
2016-09-28 02:06:59,0.02,0.88,0.00,24.39,28.47,31.63,14.47,47.45,1012.81,2030.04,3159.23,2890.83,3266.00,600.36,591.38,34.84,0000 0000 0000 0000 000000
2016-09-28 02:12:00,0.03,0.88,0.00,24.37,28.47,31.65,14.39,47.50,1012.88,2030.03,3158.97,2890.17,3265.70,599.77,590.94,34.89,0000 0000 0000 0000 000000
2016-09-28 02:17:02,0.07,0.88,0.00,24.35,28.47,31.65,14.38,47.35,1013.09,2030.02,3157.77,2889.53,3264.60,600.12,591.43,34.94,0000 0000 0000 0000 000000
2016-09-28 02:22:03,0.01,0.88,0.00,24.36,28.47,31.66,14.43,47.47,1013.15,2030.02,3156.82,2888.99,3263.97,600.09,591.31,34.99,0000 0000 0000 0000 000000
2016-09-28 02:27:05,0.05,0.89,0.00,24.37,28.47,31.66,14.40,47.51,1013.11,2030.00,3156.04,2888.24,3263.18,599.92,591.13,35.04,0000 0000 0000 0000 000000
2016-09-28 02:32:06,0.00,0.89,0.00,24.36,28.47,31.66,14.46,47.58,1013.07,2030.01,3155.76,2888.00,3263.00,600.00,591.31,35.09,0000 0000 0000 0000 000000
2016-09-28 02:37:07,0.01,0.89,0.00,24.33,28.48,31.66,14.44,47.60,1013.16,2030.01,3155.10,2888.00,3262.79,600.03,591.34,35.15,0000 0000 0000 0000 000000
2016-09-28 02:42:08,0.01,0.89,0.00,24.33,28.48,31.64,14.45,47.59,1013.19,2030.01,3154.99,2887.87,3262.08,600.30,591.68,35.20,0000 0000 0000 0000 000000
2016-09-28 02:47:09,0.02,0.89,0.00,24.33,28.48,31.64,14.46,47.50,1013.20,2030.00,3154.66,2887.28,3261.99,600.22,591.65,35.25,0000 0000 0000 0000 000000
2016-09-28 02:52:11,0.01,0.89,0.00,24.33,28.49,31.67,14.40,47.47,1013.20,2030.01,3154.04,2887.02,3261.77,599.65,591.03,35.30,0000 0000 0000 0000 000000
2016-09-28 02:57:12,0.01,0.89,0.00,24.32,28.50,31.65,14.35,47.27,1013.22,2030.00,3153.91,2887.00,3261.06,599.81,591.22,35.35,0000 0000 0000 0000 000000
2016-09-28 03:02:13,0.01,0.89,0.00,24.33,28.50,31.63,14.35,47.33,1013.21,2030.00,3153.17,2887.00,3261.00,599.99,591.47,35.40,0000 0000 0000 0000 000000
2016-09-28 03:07:14,0.00,0.89,0.00,24.32,28.50,31.65,14.37,47.34,1013.35,2030.00,3152.99,2886.96,3260.89,599.89,591.33,35.45,0000 0000 0000 0000 000000
2016-09-28 03:12:15,0.05,0.89,0.00,24.31,28.50,31.63,14.43,47.33,1013.37,2030.00,3152.29,2886.30,3260.09,600.08,591.52,35.50,0000 0000 0000 0000 000000
2016-09-28 03:17:17,0.00,0.89,0.00,24.31,28.50,31.64,14.36,47.45,1013.43,2030.00,3151.99,2886.04,3259.99,599.88,591.40,35.55,0000 0000 0000 0000 000000
2016-09-28 03:22:18,0.00,0.90,0.00,24.30,28.50,31.63,14.48,47.48,1013.61,2030.00,3151.71,2886.00,3259.90,600.11,591.82,35.60,0000 0000 0000 0000 000000
2016-09-28 03:27:19,0.02,0.90,0.00,24.28,28.50,31.67,14.50,47.55,1013.59,2030.00,3151.05,2886.00,3259.18,600.14,591.67,35.65,0000 0000 0000 0000 000000
2016-09-28 03:32:20,0.00,0.90,0.00,24.30,28.50,31.67,14.36,47.51,1013.65,2030.00,3150.96,2885.99,3259.00,599.92,591.59,35.70,0000 0000 0000 0000 000000
2016-09-28 03:37:22,0.03,0.90,0.00,24.29,28.50,31.64,14.42,47.48,1013.69,2030.00,3150.26,2885.71,3258.74,599.99,591.71,35.75,0000 0000 0000 0000 000000
2016-09-28 03:42:23,0.01,0.90,0.00,24.25,28.50,31.65,14.46,47.53,1013.69,2030.00,3150.00,2885.26,3258.10,600.12,591.96,35.80,0000 0000 0000 0000 000000
2016-09-28 03:47:24,0.02,0.90,0.00,24.25,28.50,31.65,14.41,47.47,1013.69,2029.99,3149.37,2885.01,3257.99,599.88,591.61,35.85,0000 0000 0000 0000 000000
2016-09-28 03:52:26,0.01,0.90,0.00,24.25,28.50,31.65,14.40,47.50,1013.69,2029.99,3148.97,2885.00,3257.58,600.24,591.99,35.90,0000 0000 0000 0000 000000
2016-09-28 03:57:27,0.02,0.90,0.00,24.26,28.50,31.65,14.45,47.48,1013.69,2029.99,3148.37,2884.99,3257.05,600.39,592.19,35.95,0000 0000 0000 0000 000000
2016-09-28 04:02:28,0.00,0.90,0.00,24.25,28.50,31.67,14.42,47.43,1013.69,2029.98,3148.01,2884.83,3257.00,600.00,591.82,36.00,0000 0000 0000 0000 000000
2016-09-28 04:07:30,0.03,0.90,0.00,24.23,28.50,31.66,14.46,47.51,1013.71,2029.99,3147.78,2884.40,3256.75,599.83,591.69,36.05,0000 0000 0000 0000 000000
2016-09-28 04:12:31,0.02,0.91,0.00,24.24,28.50,31.65,14.48,47.38,1013.72,2029.98,3147.04,2884.01,3256.05,600.15,591.95,36.11,0000 0000 0000 0000 000000
2016-09-28 04:17:32,0.00,0.91,0.00,24.23,28.50,31.68,14.41,47.43,1013.71,2029.98,3146.83,2884.00,3255.97,599.76,591.55,36.16,0000 0000 0000 0000 000000
2016-09-28 04:22:33,0.02,0.91,0.00,24.23,28.50,31.68,14.44,47.38,1013.73,2029.97,3146.04,2883.97,3255.31,600.29,592.15,36.21,0000 0000 0000 0000 000000
2016-09-28 04:27:34,0.02,0.91,0.00,24.22,28.50,31.70,14.39,47.43,1014.00,2029.99,3145.65,2883.80,3255.01,600.01,592.07,36.26,0000 0000 0000 0000 000000
2016-09-28 04:32:36,0.04,0.91,0.00,24.21,28.50,31.68,14.41,47.34,1014.12,2029.96,3144.59,2883.10,3254.59,600.28,592.48,36.31,0000 0000 0000 0000 000000
2016-09-28 04:37:37,0.02,0.91,0.00,24.18,28.50,31.66,14.42,47.34,1014.15,2029.98,3143.72,2882.99,3254.01,600.26,592.43,36.36,0000 0000 0000 0000 000000
2016-09-28 04:42:38,0.04,0.91,0.00,24.19,28.50,31.66,14.35,47.33,1014.17,2029.97,3143.00,2882.47,3253.45,599.95,592.15,36.41,0000 0000 0000 0000 000000
2016-09-28 04:47:39,0.01,0.91,0.00,24.16,28.50,31.67,14.44,47.48,1014.17,2029.98,3142.72,2882.38,3253.08,599.98,592.10,36.46,0000 0000 0000 0000 000000
2016-09-28 04:52:41,0.02,0.92,0.00,24.16,28.50,31.67,14.39,47.39,1014.17,2029.99,3141.93,2882.08,3252.93,599.97,592.26,36.51,0000 0000 0000 0000 000000
2016-09-28 04:57:42,0.03,0.92,0.00,24.15,28.50,31.66,14.46,47.42,1014.17,2029.98,3141.04,2881.83,3252.08,600.02,592.27,36.56,0000 0000 0000 0000 000000
2016-09-28 05:02:44,0.02,0.92,0.00,24.15,28.50,31.64,14.50,47.32,1014.18,2029.98,3140.53,2881.52,3251.99,600.10,592.34,36.61,0000 0000 0000 0000 000000
2016-09-28 05:07:45,0.01,0.92,0.00,24.17,28.50,31.69,14.49,47.36,1014.18,2029.98,3140.05,2881.20,3251.87,599.87,592.17,36.66,0000 0000 0000 0000 000000
2016-09-28 05:12:46,0.01,0.92,0.00,24.16,28.50,31.67,14.51,47.37,1014.19,2029.98,3139.93,2881.04,3251.24,600.18,592.42,36.71,0000 0000 0000 0000 000000
2016-09-28 05:17:47,0.01,0.92,0.00,24.15,28.50,31.66,14.45,47.39,1014.21,2029.98,3139.27,2881.00,3251.00,599.74,592.10,36.76,0000 0000 0000 0000 000000
2016-09-28 05:22:49,0.00,0.92,0.00,24.14,28.50,31.66,14.48,47.47,1014.22,2029.98,3139.00,2881.00,3250.94,600.23,592.57,36.81,0000 0000 0000 0000 000000
2016-09-28 05:27:50,0.02,0.92,0.00,24.13,28.50,31.70,14.41,47.46,1014.22,2029.99,3138.64,2880.97,3250.25,600.02,592.39,36.86,0000 0000 0000 0000 000000
2016-09-28 05:32:51,0.01,0.92,0.00,24.13,28.50,31.67,14.38,47.48,1014.34,2029.95,3138.02,2880.82,3250.00,599.73,592.25,36.91,0000 0000 0000 0000 000000
2016-09-28 05:37:53,0.01,0.92,0.00,24.14,28.50,31.68,14.46,47.44,1014.58,2029.98,3137.88,2880.39,3249.96,600.15,592.72,36.97,0000 0000 0000 0000 000000
2016-09-28 05:42:54,0.03,0.93,0.00,24.13,28.50,31.69,14.43,47.43,1014.62,2029.97,3137.11,2880.03,3249.32,600.06,592.46,37.02,0000 0000 0000 0000 000000
2016-09-28 05:47:55,0.00,0.93,0.00,24.11,28.50,31.64,14.44,47.48,1014.66,2029.96,3136.91,2880.00,3249.01,599.83,592.71,37.07,0000 0000 0000 0000 000000
2016-09-28 05:52:56,0.02,0.93,0.00,24.09,28.50,31.66,14.48,47.63,1014.66,2029.92,3136.11,2879.98,3248.72,599.87,592.49,37.12,0000 0000 0000 0000 000000
2016-09-28 05:57:58,0.02,0.93,0.00,24.07,28.50,31.65,14.50,47.59,1014.66,2029.91,3135.75,2879.80,3248.05,599.78,592.59,37.17,0000 0000 0000 0000 000000
2016-09-28 06:02:59,0.02,0.93,0.00,24.08,28.50,31.61,14.45,47.47,1014.66,2029.90,3135.05,2879.19,3247.99,599.99,592.72,37.22,0000 0000 0000 0000 000000
2016-09-28 06:08:00,0.00,0.93,0.00,24.07,28.50,31.65,14.39,47.51,1014.66,2029.85,3134.98,2879.02,3247.73,599.93,592.71,37.27,0000 0000 0000 0000 000000
2016-09-28 06:13:02,0.02,0.93,0.00,24.05,28.50,31.61,14.35,47.53,1014.66,2029.92,3134.64,2879.00,3247.11,599.67,592.43,37.32,0000 0000 0000 0000 000000
2016-09-28 06:18:03,0.01,0.93,0.00,24.04,28.50,31.64,14.47,47.51,1014.67,2029.93,3134.04,2879.00,3247.00,599.92,592.82,37.37,0000 0000 0000 0000 000000
2016-09-28 06:23:04,-0.00,0.93,0.00,24.01,28.50,31.66,14.47,47.55,1014.68,2029.91,3133.96,2879.00,3246.94,600.21,593.10,37.42,0000 0000 0000 0000 000000
2016-09-28 06:28:05,0.02,0.93,0.00,24.01,28.50,31.61,14.50,47.45,1014.74,2029.88,3133.34,2878.99,3246.30,600.13,593.14,37.47,0000 0000 0000 0000 000000
2016-09-28 06:33:06,0.00,0.93,0.00,24.01,28.50,31.63,14.38,47.52,1014.83,2029.89,3133.01,2878.98,3246.04,599.46,592.43,37.52,0000 0000 0000 0000 000000
2016-09-28 06:38:07,0.01,0.93,0.00,23.99,28.50,31.60,14.47,47.47,1015.00,2029.93,3132.95,2878.97,3246.00,600.11,593.22,37.57,0000 0000 0000 0000 000000
2016-09-28 06:43:08,0.03,0.93,0.00,23.96,28.50,31.61,14.50,47.42,1015.14,2029.96,3132.24,2878.69,3245.87,600.16,593.35,37.62,0000 0000 0000 0000 000000
2016-09-28 06:48:10,0.02,0.94,0.00,23.99,28.50,31.62,14.45,47.48,1015.15,2029.95,3132.00,2878.28,3245.29,599.78,592.89,37.67,0000 0000 0000 0000 000000
2016-09-28 06:53:11,0.00,0.94,0.00,23.95,28.50,31.54,14.41,47.33,1015.15,2029.92,3131.90,2878.05,3245.02,599.86,593.17,37.72,0000 0000 0000 0000 000000
2016-09-28 06:58:12,0.00,0.94,0.00,23.94,28.50,31.60,14.42,47.31,1015.15,2029.81,3131.09,2878.00,3244.88,599.56,592.88,37.77,0000 0000 0000 0000 000000
2016-09-28 07:03:14,0.03,0.94,0.00,23.94,28.50,31.57,14.45,47.42,1015.16,2029.90,3130.71,2877.99,3244.24,599.89,593.19,37.82,0000 0000 0000 0000 000000
2016-09-28 07:08:15,0.01,0.94,0.00,23.93,28.50,31.58,14.46,47.44,1015.16,2029.92,3130.14,2877.98,3244.01,599.85,593.32,37.87,0000 0000 0000 0000 000000
2016-09-28 07:13:16,0.00,0.94,0.00,23.92,28.50,31.53,14.45,47.37,1015.16,2029.97,3130.00,2877.97,3244.00,599.94,593.21,37.92,0000 0000 0000 0000 000000
2016-09-28 07:18:18,0.01,0.94,0.00,23.92,28.49,31.54,14.48,47.50,1015.16,2029.95,3129.72,2877.79,3243.78,600.08,593.44,37.98,0000 0000 0000 0000 000000
2016-09-28 07:23:19,0.03,0.94,0.00,23.92,28.49,31.53,14.49,47.40,1015.28,2029.96,3129.04,2877.20,3243.08,600.22,593.62,38.03,0000 0000 0000 0000 000000
2016-09-28 07:28:20,0.00,0.94,0.00,23.91,28.48,31.54,14.46,47.46,1015.41,2029.93,3128.89,2877.01,3242.99,600.09,593.59,38.08,0000 0000 0000 0000 000000
2016-09-28 07:33:22,0.01,0.94,0.00,23.93,28.48,31.59,14.53,47.41,1015.52,2029.82,3128.11,2877.00,3242.47,600.16,593.66,38.13,0000 0000 0000 0000 000000
2016-09-28 07:38:23,0.01,0.94,0.00,23.92,28.48,31.57,14.46,47.38,1015.52,2029.87,3127.99,2877.00,3242.04,599.94,593.56,38.18,0000 0000 0000 0000 000000
2016-09-28 07:43:24,0.02,0.94,0.00,23.89,28.48,31.54,14.53,47.42,1015.55,2029.89,3127.52,2876.97,3242.00,600.34,593.89,38.23,0000 0000 0000 0000 000000
2016-09-28 07:48:26,0.04,0.95,0.00,23.87,28.48,31.56,14.44,47.36,1015.64,2029.89,3126.91,2876.31,3241.34,599.86,593.56,38.28,0000 0000 0000 0000 000000
2016-09-28 07:53:27,0.01,0.95,0.00,23.82,28.47,31.51,14.49,47.45,1015.64,2029.85,3126.15,2876.02,3241.01,600.00,593.88,38.33,0000 0000 0000 0000 000000
2016-09-28 07:58:28,-0.01,0.95,0.00,23.79,28.47,31.52,14.44,47.48,1015.64,2029.76,3125.91,2876.00,3240.89,599.93,593.69,38.38,0000 0000 0000 0000 000000
2016-09-28 08:03:29,0.03,0.95,0.00,23.76,28.47,31.51,14.50,47.57,1015.64,2029.69,3125.15,2875.99,3240.19,600.03,593.98,38.43,0000 0000 0000 0000 000000
2016-09-28 08:08:31,0.02,0.95,0.00,23.72,28.47,31.54,14.53,47.58,1015.64,2029.81,3124.77,2875.90,3240.00,600.01,594.02,38.48,0000 0000 0000 0000 000000
2016-09-28 08:13:32,0.02,0.95,0.00,23.67,28.47,31.56,14.53,47.59,1015.71,2029.90,3124.07,2875.62,3239.97,599.93,594.11,38.53,0000 0000 0000 0000 000000
2016-09-28 08:18:33,0.02,0.95,0.00,23.74,28.47,31.52,14.53,47.51,1015.84,2029.91,3123.99,2875.28,3239.51,600.31,594.47,38.58,0000 0000 0000 0000 000000
2016-09-28 08:23:35,-0.00,0.95,0.00,23.71,28.47,31.53,14.46,47.52,1015.81,2029.78,3123.55,2875.02,3239.01,600.03,594.21,38.63,0000 0000 0000 0000 000000
2016-09-28 08:28:36,0.02,0.95,0.00,23.71,28.46,31.54,14.52,47.57,1016.05,2029.86,3123.03,2875.00,3238.98,599.80,594.12,38.68,0000 0000 0000 0000 000000
2016-09-28 08:33:37,0.09,0.96,0.00,23.59,28.45,31.57,14.53,47.54,1016.11,2029.92,3121.40,2874.22,3237.84,600.43,595.03,38.73,0000 0000 0000 0000 000000
2016-09-28 08:38:38,0.02,0.96,0.00,23.55,28.45,31.70,14.50,47.58,1016.13,2029.93,3120.72,2874.00,3237.10,600.09,594.73,38.78,0000 0000 0000 0000 000000
2016-09-28 08:43:40,0.01,0.96,0.00,23.57,28.45,31.58,14.55,47.57,1016.13,2029.97,3120.03,2873.96,3237.00,599.99,594.55,38.83,0000 0000 0000 0000 000000
2016-09-28 08:48:41,0.02,0.96,0.00,23.51,28.45,31.75,14.53,47.52,1016.13,2029.96,3119.83,2873.70,3236.79,599.97,594.69,38.88,0000 0000 0000 0000 000000
2016-09-28 08:53:42,0.03,0.96,0.00,23.39,28.44,31.73,14.49,47.57,1016.13,2029.97,3119.03,2873.08,3236.06,599.83,594.79,38.94,0000 0000 0000 0000 000000
2016-09-28 08:58:43,0.02,0.96,0.00,23.32,28.42,31.70,14.53,47.79,1016.13,2029.98,3118.21,2873.00,3235.90,600.03,595.11,38.99,0000 0000 0000 0000 000000
2016-09-28 09:03:45,0.00,0.96,0.00,23.24,28.42,31.70,14.59,47.69,1016.13,2029.97,3117.96,2872.98,3235.22,600.03,595.33,39.04,0000 0000 0000 0000 000000
2016-09-28 09:08:46,0.03,0.97,0.00,23.19,28.40,31.68,14.59,47.76,1016.13,2029.98,3117.20,2872.67,3235.00,600.23,595.65,39.09,0000 0000 0000 0000 000000
2016-09-28 09:13:47,0.01,0.97,0.00,23.22,28.40,31.69,14.61,47.71,1016.13,2029.99,3116.98,2872.17,3234.88,599.85,595.19,39.14,0000 0000 0000 0000 000000
2016-09-28 09:18:48,0.03,0.97,0.00,23.18,28.40,31.70,14.56,47.63,1016.13,2029.99,3116.42,2871.88,3234.07,600.05,595.42,39.19,0000 0000 0000 0000 000000
2016-09-28 09:23:49,0.04,0.97,0.00,23.08,28.39,31.72,14.62,47.58,1016.13,2029.99,3115.74,2871.15,3233.16,600.26,595.82,39.24,0000 0000 0000 0000 000000
2016-09-28 09:28:51,0.01,0.97,0.00,23.04,28.38,31.71,14.58,47.63,1016.13,2029.99,3115.03,2871.01,3233.00,600.02,595.72,39.29,0000 0000 0000 0000 000000
2016-09-28 09:33:52,0.00,0.97,0.00,23.20,28.38,31.70,14.58,47.66,1016.13,2029.99,3114.94,2871.00,3232.94,600.07,595.47,39.34,0000 0000 0000 0000 000000
2016-09-28 09:38:53,0.03,0.97,0.00,23.55,28.40,31.54,14.50,47.54,1016.15,2029.99,3114.28,2870.97,3232.27,599.84,594.56,39.39,0000 0000 0000 0000 000000
2016-09-28 09:43:55,0.00,0.97,0.00,23.64,28.40,31.53,14.52,47.40,1016.28,2029.99,3113.98,2870.83,3232.00,600.28,594.81,39.44,0000 0000 0000 0000 000000
2016-09-28 09:48:56,0.03,0.98,0.00,23.69,28.42,31.56,14.50,47.41,1016.43,2029.98,3113.40,2870.17,3231.95,600.19,594.77,39.49,0000 0000 0000 0000 000000
2016-09-28 09:53:58,0.02,0.98,0.00,23.76,28.44,31.61,14.52,47.38,1016.45,2029.98,3113.02,2870.03,3231.30,600.06,594.47,39.54,0000 0000 0000 0000 000000
2016-09-28 09:58:59,0.00,0.98,0.00,23.81,28.46,31.63,14.53,47.47,1016.40,2029.98,3112.86,2870.00,3231.00,599.87,594.20,39.59,0000 0000 0000 0000 000000
2016-09-28 10:04:00,0.02,0.98,0.00,23.85,28.48,31.67,14.52,47.46,1016.50,2029.97,3112.12,2869.97,3230.61,600.28,594.53,39.64,0000 0000 0000 0000 000000
2016-09-28 10:09:01,0.01,0.98,0.00,23.80,28.50,31.69,14.48,47.39,1016.61,2029.83,3111.99,2869.46,3230.02,599.93,594.35,39.69,0000 0000 0000 0000 000000
2016-09-28 10:14:02,0.00,0.98,0.00,23.75,28.51,31.66,14.50,47.36,1016.61,2029.64,3111.44,2869.06,3229.91,599.91,594.42,39.74,0000 0000 0000 0000 000000
2016-09-28 10:19:04,-0.02,0.98,0.00,23.60,28.52,31.63,14.55,47.42,1016.62,2029.21,3111.00,2869.00,3229.21,600.18,594.92,39.80,0000 0000 0000 0000 000000
2016-09-28 10:24:05,0.00,0.98,0.00,23.49,28.52,31.82,14.56,47.45,1016.62,2029.18,3110.64,2869.00,3229.01,600.08,595.07,39.85,0000 0000 0000 0000 000000
2016-09-28 10:29:06,0.00,0.98,0.00,23.37,28.52,31.92,14.59,47.60,1016.62,2029.05,3110.02,2868.96,3228.97,600.02,595.34,39.90,0000 0000 0000 0000 000000
2016-09-28 10:34:07,0.02,0.98,0.00,23.28,28.52,31.85,14.57,47.65,1016.63,2029.08,3109.96,2868.88,3228.68,600.25,595.76,39.95,0000 0000 0000 0000 000000
2016-09-28 10:39:08,0.03,0.98,0.00,23.27,28.50,31.78,14.55,47.58,1016.64,2029.12,3109.32,2868.43,3228.07,599.89,595.42,40.00,0000 0000 0000 0000 000000
2016-09-28 10:44:10,0.01,0.98,0.00,23.21,28.50,31.75,14.61,47.74,1016.64,2029.16,3109.01,2868.10,3228.00,599.98,595.58,40.05,0000 0000 0000 0000 000000
2016-09-28 10:49:11,0.01,0.98,0.00,23.05,28.48,31.68,14.65,47.70,1016.64,2029.18,3108.93,2868.02,3227.97,600.14,596.06,40.10,0000 0000 0000 0000 000000
2016-09-28 10:54:12,0.02,0.98,0.00,22.99,28.47,31.68,14.58,47.72,1016.64,2029.15,3108.20,2868.00,3227.51,600.27,596.34,40.15,0000 0000 0000 0000 000000
2016-09-28 10:59:14,0.02,0.98,0.00,22.99,28.47,31.69,14.65,47.77,1016.66,2029.26,3108.01,2868.00,3227.08,600.09,596.07,40.20,0000 0000 0000 0000 000000
2016-09-28 11:04:15,0.03,0.98,0.00,22.94,28.45,31.76,14.61,47.70,1016.84,2029.46,3107.58,2867.97,3226.99,599.80,596.02,40.25,0000 0000 0000 0000 000000
2016-09-28 11:09:17,0.04,0.99,0.00,22.90,28.45,31.80,14.63,47.74,1016.92,2029.76,3107.01,2867.89,3226.87,600.02,596.52,40.30,0000 0000 0000 0000 000000
2016-09-28 11:14:18,0.03,0.99,0.00,22.92,28.45,31.79,14.56,47.68,1017.02,2029.89,3106.94,2867.48,3226.23,599.82,596.25,40.35,0000 0000 0000 0000 000000
2016-09-28 11:19:19,0.02,0.99,0.00,22.95,28.44,31.80,14.58,47.67,1017.09,2029.92,3106.16,2867.05,3225.98,599.83,596.35,40.40,0000 0000 0000 0000 000000
2016-09-28 11:24:20,0.06,0.99,0.00,22.89,28.43,31.80,14.67,47.74,1017.10,2029.94,3105.15,2866.59,3225.16,600.15,596.73,40.45,0000 0000 0000 0000 000000
2016-09-28 11:29:22,0.02,0.99,0.00,22.84,28.43,31.82,14.67,47.77,1017.10,2029.93,3104.54,2866.03,3224.79,599.98,596.66,40.50,0000 0000 0000 0000 000000
2016-09-28 11:34:23,0.01,1.00,0.00,22.80,28.43,31.82,14.66,47.70,1017.10,2029.94,3104.02,2866.00,3224.12,600.24,596.94,40.55,0000 0000 0000 0000 000000
2016-09-28 11:39:25,0.01,1.00,0.00,22.78,28.43,31.82,14.61,47.73,1017.11,2029.95,3103.64,2866.00,3224.00,599.88,596.75,40.60,0000 0000 0000 0000 000000
2016-09-28 11:44:26,0.02,1.00,0.00,22.78,28.44,31.85,14.64,47.80,1017.11,2029.94,3103.00,2865.63,3223.76,599.97,596.84,40.65,0000 0000 0000 0000 000000
2016-09-28 11:49:27,0.08,1.00,0.00,22.71,28.44,31.86,14.68,47.76,1017.11,2029.98,3101.70,2864.72,3222.64,599.92,596.78,40.70,0000 0000 0000 0000 000000
2016-09-28 11:54:28,0.09,1.01,0.00,22.78,28.45,31.88,14.63,47.77,1017.12,2029.98,3099.56,2863.43,3221.10,599.92,596.69,40.76,0000 0000 0000 0000 000000
2016-09-28 11:59:29,0.08,1.01,0.00,22.90,28.45,31.88,14.59,47.63,1017.12,2029.96,3097.69,2862.23,3219.68,599.85,596.35,40.81,0000 0000 0000 0000 000000
2016-09-28 12:04:31,0.05,1.01,0.00,22.85,28.45,31.92,14.72,47.76,1017.12,2029.93,3096.31,2861.32,3218.68,599.98,596.60,40.86,0000 0000 0000 0000 000000
2016-09-28 12:09:32,0.02,1.02,0.00,22.81,28.45,31.89,14.66,47.87,1017.11,2029.91,3095.47,2861.00,3218.03,600.29,597.01,40.91,0000 0000 0000 0000 000000
2016-09-28 12:14:34,0.00,1.02,0.00,22.72,28.45,31.90,14.75,47.83,1017.12,2029.88,3095.05,2860.98,3217.97,600.47,597.27,40.96,0000 0000 0000 0000 000000
2016-09-28 12:19:35,0.00,1.02,0.00,22.75,28.46,31.91,14.67,47.70,1017.12,2029.92,3095.00,2860.97,3217.90,600.20,596.97,41.01,0000 0000 0000 0000 000000
2016-09-28 12:24:36,0.01,1.02,0.00,22.77,28.47,31.93,14.63,47.68,1017.12,2029.92,3094.98,2860.93,3217.38,600.03,596.79,41.06,0000 0000 0000 0000 000000
2016-09-28 12:29:37,0.01,1.02,0.00,22.78,28.47,31.92,14.64,47.87,1017.11,2029.91,3094.82,2860.68,3217.04,599.91,596.73,41.11,0000 0000 0000 0000 000000
2016-09-28 12:34:39,0.02,1.02,0.00,22.87,28.47,31.94,14.70,47.73,1017.12,2029.84,3094.16,2860.19,3217.00,600.24,596.83,41.16,0000 0000 0000 0000 000000
2016-09-28 12:39:40,-0.01,1.02,0.00,22.78,28.48,31.93,14.55,47.74,1017.28,2029.74,3094.03,2860.07,3216.98,599.90,596.77,41.21,0000 0000 0000 0000 000000
2016-09-28 12:44:41,-0.00,1.02,0.00,22.74,28.49,31.94,14.66,47.76,1017.28,2029.55,3093.99,2860.01,3216.58,599.91,596.72,41.26,0000 0000 0000 0000 000000
2016-09-28 12:49:43,0.00,1.02,0.00,22.77,28.50,31.95,14.72,47.66,1017.39,2029.45,3093.49,2860.00,3216.07,600.51,597.45,41.31,0000 0000 0000 0000 000000
2016-09-28 12:54:44,0.02,1.02,0.00,22.73,28.50,31.95,14.60,47.70,1017.40,2029.42,3093.02,2859.98,3216.00,599.86,596.89,41.36,0000 0000 0000 0000 000000